Temp_Advection
nan nan nan nan nan nan nan nan nan nan nan nan nan nan nan nan nan nan nan nan nan nan nan nan nan nan nan nan nan nan nan nan nan nan nan nan nan nan nan nan nan nan nan nan nan nan nan nan nan
nan 0 -0 -0 -0 0 -0 -0 -0 -0 -0 0 -0 -0 -0 -0 0 0 -0 0 0 0 -0 -0 -0 0 -0 -0 -0 -0 0 0 0 0 0 -0 -0 -0 0 0 -0 0 0 0 0 -0 -0 -0 nan
nan -0 -0 -0 -0 -0 -0 0 -0 -0 0 -0 -0 -0 -0 -0 -0 -0 -0 -0 0 0 0 0 0 0 0 0 0 0 0 0 0 0 0 -0 -0 -0 -0 0 -0 -0 0 0 0 -0 -0 -0 nan
nan -0 -0 -0 -0 -0 -0 -0 -0 -0 0 -0 -1 -0 0 0 0 -0 0 0 0 0 0 1 1 0 0 0 0 0 0 0 0 0 0 -0 -1 -1 -0 -0 -0 -0 0 0 0 -0 -0 -0 nan
nan -1 -0 -0 -0 -0 -0 -1 -0 -0 0 0 -0 -0 0 0 0 0 0 0 0 0 0 -0 0 -0 0 0 0 0 0 -0 -0 0 0 0 -0 -1 -0 -0 -0 -0 -0 -0 -0 -0 -0 -0 nan
nan -0 -0 -0 -0 -0 -0 -1 -1 -0 0 -0 -0 -0 0 0 0 0 0 0 0 0 0 -0 -1 -1 0 -0 0 0 0 -0 -0 0 0 0 0 -0 -0 -0 -0 -0 -0 -0 -0 -0 -0 -0 nan
nan -0 -0 -0 -0 -0 -0 -1 -0 0 0 -0 -1 -0 0 0 0 0 0 -0 0 0 0 0 -0 -0 -1 -0 -0 0 0 -0 -0 -0 -0 0 0 0 -0 -0 -0 -0 0 0 0 0 -0 -0 nan
nan -0 0 -0 -0 -0 -0 -2 -1 -0 -0 -0 -1 -1 -0 0 -0 0 0 0 0 0 0 -0 -0 -0 -1 -1 -1 -0 -0 -0 -0 -0 -0 -0 -0 -0 -0 -0 -0 -0 -0 0 0 0 0 0 nan
nan -0 -0 -0 -0 -0 -1 -1 -2 -1 0 -0 0 -1 -1 -0 0 0 0 0 0 0 0 -0 -0 0 -0 -0 -0 -1 -0 -0 -0 0 0 -0 0 0 0 0 0 0 -0 0 0 0 0 0 nan
nan -0 -1 -1 -0 -0 -1 -0 -2 -1 -0 0 0 0 0 -0 -0 -0 -0 -0 -0 0 0 0 0 0 0 -0 0 -0 -0 -0 -0 0 0 0 0 0 0 0 0 0 0 0 0 0 0 0 nan
nan -1 0 -0 1 0 -0 -1 -1 -1 -0 -0 -1 -1 -0 -0 -1 -1 -0 0 0 0 0 0 0 0 0 0 0 0 -0 -0 0 0 0 0 0 0 0 0 0 0 0 0 -0 -0 0 0 nan
nan -0 0 0 0 -0 0 -0 -1 -1 -1 -1 -0 -0 -1 -0 -0 -0 0 0 0 0 -0 -0 0 0 0 0 0 0 0 0 0 0 0 0 0 -0 0 0 0 0 0 0 0 0 0 0 nan
nan -0 0 1 -0 0 0 -0 -1 -3 -2 0 1 1 0 0 0 0 0 -0 -0 -0 -0 -0 -0 -0 -0 -0 0 0 0 0 0 0 0 0 0 0 0 0 0 0 0 -0 0 0 0 0 nan
nan 0 0 -0 -0 -0 -0 -0 -1 -3 -0 0 0 0 0 0 0 0 -0 -0 -0 -0 -0 -0 -0 -0 -0 0 0 -0 0 0 0 0 0 0 0 0 0 0 0 0 0 -0 -0 0 0 0 nan
nan 0 0 -0 -0 -0 -1 -0 -1 -3 -1 0 0 -0 -0 -0 0 -0 0 -0 -0 -0 -0 0 -0 -0 0 0 0 0 0 0 0 0 0 -0 -0 0 0 0 0 0 0 0 0 -0 0 0 nan
nan -0 0 -0 -0 -0 -1 -0 -1 -1 -1 -0 0 0 -0 -0 -0 -0 -0 -0 0 -0 -0 -0 0 0 0 0 0 0 0 0 0 0 0 -0 -0 0 0 -0 0 0 0 -0 -0 0 0 0 nan
nan 0 -0 0 0 0 0 0 -1 -1 -0 -0 -0 -0 0 0 -0 -0 0 0 -0 -0 0 0 0 -0 0 0 0 0 0 0 0 0 0 0 -0 0 -0 -0 0 0 0 0 0 0 0 0 nan
nan -0 -0 -0 0 0 0 -0 -0 0 0 -0 -0 0 0 0 -0 0 0 0 -0 0 0 0 0 -0 0 0 0 0 0 0 0 0 0 0 0 0 0 -0 -0 0 0 0 0 0 0 0 nan
nan 0 0 0 -0 0 0 -0 -0 -0 0 -0 -1 -0 -0 0 0 0 0 0 0 0 0 0 0 0 0 0 0 0 0 -0 0 0 0 0 0 0 -0 -0 0 1 -0 -0 0 0 0 0 nan
nan 0 0 0 0 0 0 -0 0 0 -0 -1 -0 -0 -0 0 0 0 0 0 0 1 1 0 0 0 0 0 0 0 0 0 0 0 0 0 0 0 0 0 0 0 0 0 0 0 -0 -0 nan
nan -0 -0 0 0 -0 -0 -0 0 -0 -1 -1 -1 -0 0 1 0 0 0 0 0 0 0 0 0 0 1 1 0 0 0 0 0 0 0 0 0 0 0 0 0 0 -0 -0 0 0 -0 -0 nan
nan -0 0 0 0 0 0 0 -0 -0 1 0 -0 0 0 1 0 0 0 0 0 0 0 0 0 1 1 0 0 0 0 0 0 -0 -0 -0 0 0 1 1 0 0 0 0 0 0 0 0 nan
nan 0 0 0 0 0 0 -0 -0 0 0 0 0 -0 0 1 1 1 1 0 0 0 0 0 0 0 0 0 0 0 0 -0 -0 0 0 0 0 0 0 0 0 0 -0 0 0 0 0 0 nan
nan -0 -1 -0 -0 -0 0 0 -0 -0 -0 0 0 0 1 1 1 1 0 0 0 0 0 0 0 0 0 0 -0 -0 0 0 0 0 0 -0 -0 0 0 0 0 0 0 0 -0 0 0 0 nan
nan -1 -0 0 -0 -0 0 0 -1 0 0 -0 -0 0 1 0 0 0 0 0 0 0 0 0 0 0 0 0 0 0 0 -0 -0 -0 -0 -0 -1 -0 0 0 0 0 0 1 0 0 -0 -0 nan
nan -0 -0 0 0 -0 0 -0 -0 -0 -0 -0 -1 -0 0 0 0 0 0 0 0 0 0 0 0 0 0 0 0 -0 -0 0 0 -0 -0 -0 -0 -0 -0 0 0 0 0 1 1 0 0 -0 nan
nan -0 -0 -0 -0 0 -0 -0 -0 -0 0 1 1 1 0 0 0 0 0 0 0 0 0 0 0 0 -0 -0 -0 0 -0 -0 -0 -0 -0 -0 -0 0 -0 0 -0 -0 -0 -0 0 1 1 0 nan
nan 0 -0 0 0 -0 0 -0 -0 0 0 0 0 0 0 0 0 0 0 0 0 0 0 0 0 -0 0 -0 -0 0 0 0 -0 -0 -0 -0 -0 -0 0 0 -0 -0 -0 -0 0 0 0 0 nan
nan 0 0 -0 -0 0 -0 -0 -0 -0 0 -0 -0 -1 -0 -0 0 0 0 0 0 0 0 0 -0 -0 -0 -0 -0 0 0 0 -0 -0 -0 -0 -0 -0 -0 -0 -0 -0 -0 -0 0 0 0 0 nan
nan nan nan nan nan nan nan nan nan nan nan nan nan nan nan nan nan nan nan nan nan nan nan nan nan nan nan nan nan nan nan nan nan nan nan nan nan nan nan nan nan nan nan nan nan nan nan nan nan
Wind_Speed
4 1 2 2 3 4 3 6 3 2 2 4 2 9 9 4 2 4 18 13 11 17 22 22 21 19 18 16 16 14 12 8 7 7 3 3 6 9 11 13 12 8 8 8 8 8 8 9 8
3 3 3 2 4 2 5 5 5 5 9 12 11 9 7 2 3 15 19 13 9 17 23 23 22 19 18 16 15 14 12 10 8 4 3 5 9 14 12 12 12 8 6 7 9 11 12 12 12
8 8 3 3 3 5 4 1 7 5 7 8 6 9 5 3 8 19 13 17 14 19 21 23 22 19 18 17 16 14 12 9 8 3 5 7 13 15 15 14 11 7 4 6 9 11 13 13 14
3 3 2 3 5 6 3 5 5 3 3 5 11 7 6 3 16 12 17 16 14 20 21 23 23 21 19 18 17 14 12 10 6 6 7 10 13 14 13 12 9 6 4 7 9 10 11 12 12
3 6 2 1 6 3 7 13 8 4 3 6 7 3 4 8 9 12 18 17 15 21 21 21 21 21 21 21 18 15 13 9 7 7 9 11 11 11 11 9 8 7 7 8 8 9 9 10 10
4 4 1 3 7 5 9 15 15 5 3 7 9 8 3 11 19 19 18 17 9 15 19 17 18 25 23 21 19 16 13 10 9 6 7 9 12 13 11 10 8 8 9 8 8 8 8 8 8
18 4 2 4 5 6 4 20 7 3 3 3 15 5 10 19 19 18 17 13 11 12 13 14 14 18 24 23 19 17 15 10 10 7 8 7 6 9 11 12 11 10 9 8 7 7 7 7 7
18 7 2 4 2 5 9 21 15 5 4 5 10 6 7 24 22 19 17 13 13 11 8 11 14 17 22 20 17 17 16 12 9 7 6 7 9 8 7 8 8 9 9 7 7 7 7 6 6
16 5 13 8 8 4 15 13 13 15 10 7 4 10 26 27 24 21 22 20 17 12 8 10 13 14 17 19 16 16 15 13 10 9 8 7 7 8 9 8 8 7 6 7 5 5 6 6 6
10 9 16 12 16 4 17 18 20 11 3 8 14 20 27 29 25 26 26 24 18 14 11 10 11 12 14 15 15 14 14 14 10 10 9 9 9 9 8 9 9 9 8 8 7 6 6 6 6
9 12 8 12 10 3 8 26 18 17 5 13 21 25 28 25 23 24 21 19 17 15 14 12 10 9 10 12 13 14 13 13 11 10 9 10 10 12 11 11 10 10 10 10 10 9 9 9 9
9 8 20 9 6 10 4 11 19 14 15 12 14 20 24 24 24 25 24 21 18 16 15 14 12 10 9 11 10 10 12 13 12 10 8 9 11 13 11 10 10 11 12 13 13 13 13 13 12
4 17 17 15 19 13 13 11 12 31 18 8 20 20 21 24 23 22 22 23 23 20 16 15 16 14 12 12 11 9 9 13 11 10 9 10 10 12 12 12 11 9 12 12 15 15 16 15 14
12 6 21 16 19 20 13 12 10 23 7 12 23 17 15 16 17 16 18 20 23 23 23 18 17 16 15 13 12 12 11 10 11 9 8 11 12 12 12 12 13 13 14 15 15 13 15 17 16
14 9 4 14 18 9 17 5 12 28 17 10 16 13 11 10 12 11 8 8 9 15 13 24 24 21 20 18 17 16 14 14 14 12 11 12 13 14 15 16 16 17 17 17 19 18 18 18 19
4 4 6 7 14 12 20 10 16 31 19 13 11 12 12 11 8 8 9 9 7 7 9 11 15 26 26 24 21 20 18 18 17 15 17 16 16 16 18 19 20 20 21 22 22 21 22 21 25
2 5 10 6 18 6 10 4 19 25 27 22 15 12 11 11 12 14 14 11 13 12 12 12 14 15 16 18 21 21 21 24 22 21 20 22 20 19 20 21 23 25 25 26 27 26 26 27 28
18 6 14 10 12 9 6 5 4 13 15 22 20 16 13 13 14 15 18 16 16 13 15 16 15 14 14 15 17 18 19 24 28 27 26 26 24 24 25 26 25 25 28 30 31 32 30 30 30
7 5 7 2 5 8 12 4 12 15 6 12 24 17 14 12 11 11 13 17 17 18 17 17 17 18 19 21 21 21 22 21 23 27 25 24 28 29 28 29 30 30 32 33 34 34 35 33 33
8 7 5 1 4 7 6 13 8 12 9 13 13 15 15 12 10 10 13 17 19 20 18 17 16 16 15 17 21 24 26 26 27 26 27 27 28 28 31 32 32 31 34 36 35 37 39 36 35
1 6 5 4 3 2 4 5 8 9 14 23 21 21 20 17 13 12 13 15 16 16 17 19 20 20 21 21 20 21 22 23 25 26 28 29 28 28 28 28 28 32 36 37 36 37 39 38 37
3 5 3 8 5 3 4 4 6 10 14 12 26 25 22 18 14 14 14 13 11 11 13 14 19 21 22 24 26 26 26 27 27 27 29 31 32 32 30 28 24 24 25 28 32 36 38 40 41
5 5 8 4 5 4 1 0 6 3 8 13 15 21 20 17 17 17 14 13 11 10 10 11 11 11 12 14 16 18 20 24 27 29 32 34 34 33 30 26 22 22 24 25 25 25 26 34 34
6 7 8 5 3 1 6 6 5 6 7 3 7 19 19 21 21 17 12 11 10 10 9 9 11 12 13 15 16 17 18 18 19 20 20 21 22 24 24 24 25 21 22 23 20 23 21 24 27
6 7 3 2 1 6 2 4 13 6 6 8 12 22 24 24 22 18 14 12 10 9 10 11 12 14 16 17 19 20 21 22 22 22 22 21 20 19 22 22 21 18 19 19 20 24 22 25 28
4 5 5 6 4 4 1 7 6 6 11 18 30 29 25 23 22 18 14 12 11 10 11 12 14 16 17 17 17 18 20 21 22 23 23 22 21 19 16 20 23 18 20 22 23 26 26 23 25
4 2 2 5 3 3 4 7 8 2 2 13 22 25 24 23 22 19 15 12 11 11 12 13 14 15 15 16 16 16 16 17 18 19 21 21 20 17 15 14 16 19 22 24 26 25 22 20 20
0 2 3 3 3 3 4 5 6 4 7 8 11 20 23 24 21 18 14 12 12 12 13 14 15 15 15 14 14 14 13 14 14 16 16 17 16 15 15 16 17 18 17 16 16 17 14 12 12
1 1 3 3 3 4 2 6 5 10 11 13 15 25 25 23 21 18 14 12 12 13 13 14 15 16 15 15 13 13 12 13 14 14 14 13 12 12 13 15 16 16 15 14 14 13 12 12 12
2 6 5 3 4 3 3 6 4 7 8 13 17 23 17 23 21 17 14 13 14 14 15 16 17 17 17 16 14 12 12 12 12 14 14 14 14 13 14 15 16 16 15 14 14 14 15 17 17
Wind_Direction
71 48 306 167 77 69 245 257 269 223 136 133 112 120 108 50 146 188 140 151 157 172 164 164 162 155 152 147 141 139 134 131 134 139 94 84 115 115 124 129 130 128 96 70 60 85 110 125 144
298 67 70 102 103 122 256 256 267 236 166 137 112 108 62 84 130 141 150 163 190 181 165 166 168 161 154 152 150 144 139 144 140 122 92 117 122 119 123 132 137 143 98 67 75 91 103 111 122
263 355 60 95 138 195 199 177 228 248 168 139 105 89 92 110 136 144 154 156 173 175 167 166 165 157 157 156 158 156 150 160 169 133 116 126 136 131 136 143 149 143 113 76 94 100 105 112 122
267 36 64 105 230 259 239 295 307 225 141 102 118 69 95 158 145 183 157 162 173 175 168 160 161 165 159 159 162 158 165 171 181 154 134 135 145 151 151 152 150 149 124 103 106 106 110 117 126
276 77 21 266 255 271 300 299 324 262 165 99 128 131 66 138 182 177 164 163 167 172 175 161 164 169 165 161 166 171 183 187 170 158 147 144 147 152 159 158 151 140 130 121 117 114 118 122 130
137 80 86 245 266 329 293 321 303 242 117 125 109 102 92 134 168 169 171 159 172 178 178 181 173 173 172 169 171 177 182 196 179 156 152 156 158 158 160 163 157 145 140 136 129 122 122 128 137
180 124 171 305 304 306 334 344 281 155 100 40 138 87 141 144 160 164 169 168 161 169 176 186 200 188 178 182 174 180 190 200 185 164 157 156 164 169 164 165 162 158 155 147 137 132 133 137 143
173 159 189 234 278 291 348 341 336 227 60 108 142 151 170 154 166 163 171 175 169 168 192 214 207 192 184 188 186 181 192 205 189 178 171 169 166 170 173 173 173 170 167 159 155 150 149 153 155
162 133 206 218 214 247 353 355 322 335 115 103 155 156 154 158 170 172 171 168 171 173 185 198 196 191 184 190 192 190 195 207 209 191 185 191 189 187 182 184 188 192 187 187 183 179 178 176 179
166 184 204 205 211 10 327 319 320 337 1 98 115 142 156 162 175 171 172 174 179 184 171 157 174 187 187 190 199 202 203 210 217 209 204 203 201 203 203 205 204 211 211 216 220 218 219 220 222
186 206 137 214 232 316 300 299 312 318 269 159 152 155 168 172 174 181 188 192 188 188 185 170 167 172 194 200 202 210 213 214 218 215 216 218 217 215 213 218 224 229 232 235 236 241 243 241 241
173 192 208 214 177 243 219 284 314 310 302 200 185 169 175 179 181 187 190 196 200 202 196 190 185 190 185 201 203 209 224 224 226 219 223 226 227 229 228 229 238 252 252 249 250 253 253 251 250
159 174 178 196 216 218 281 283 293 297 296 217 185 173 170 184 191 188 196 200 204 209 217 207 202 209 203 200 212 223 234 230 233 228 224 234 234 235 242 242 249 267 263 266 262 262 260 259 257
181 137 172 166 191 169 189 258 288 274 232 160 167 167 170 172 180 189 200 206 210 210 210 222 221 224 231 226 228 238 237 230 228 236 237 241 248 254 259 262 262 265 275 278 275 266 270 267 263
174 187 182 177 199 188 173 200 242 252 271 172 161 158 164 178 189 193 197 204 200 208 203 218 231 235 239 239 240 239 241 236 240 245 257 257 254 257 262 265 268 272 276 281 275 268 272 275 269
137 117 173 193 176 199 171 217 239 265 243 242 201 187 184 198 208 206 196 196 205 207 206 195 209 228 234 241 245 246 250 250 246 255 258 260 263 262 263 267 270 273 273 275 275 272 271 272 283
304 164 196 157 189 164 191 170 217 226 251 247 223 205 201 206 213 222 227 211 214 217 220 225 224 225 229 237 242 247 251 248 248 242 251 257 260 264 263 266 269 268 268 271 273 272 268 268 270
191 185 197 186 194 177 196 226 256 227 229 232 231 221 229 236 244 251 234 220 218 221 217 210 215 218 222 225 229 236 245 246 245 251 248 249 254 261 265 268 270 269 267 269 270 269 267 265 271
135 118 154 187 173 179 219 208 239 258 259 232 226 234 234 231 230 221 213 211 223 232 229 216 220 224 226 229 235 241 245 248 250 252 259 260 262 264 264 267 266 266 269 271 271 270 270 267 265
138 155 181 69 221 184 203 234 233 247 246 244 226 220 218 220 222 222 213 212 214 223 227 222 224 228 227 228 233 237 242 247 253 254 255 259 262 263 266 265 269 268 272 269 271 269 270 267 269
187 165 168 155 92 70 123 284 242 252 244 252 250 238 232 227 217 202 203 211 218 220 223 230 238 244 247 245 243 243 244 247 249 250 253 257 264 264 263 267 270 268 264 267 271 272 272 271 270
174 205 189 165 127 195 154 267 250 229 234 230 239 236 231 209 203 200 204 213 216 228 241 251 256 256 252 252 253 254 255 256 258 262 262 264 265 264 264 266 269 272 275 273 272 272 272 270 273
206 152 146 121 100 112 190 310 266 241 235 232 216 205 201 201 204 191 197 212 220 227 237 241 242 245 247 250 254 257 261 264 263 263 264 266 265 265 265 265 262 270 275 276 274 281 283 272 276
139 87 53 56 90 272 194 166 255 210 217 193 183 196 193 180 170 171 181 197 213 225 233 238 245 251 255 259 263 264 264 265 265 265 267 268 270 267 268 267 266 261 270 270 269 281 286 289 280
123 99 39 26 350 227 139 163 244 248 234 184 176 173 167 170 167 171 184 193 215 231 247 255 259 262 262 262 263 265 267 268 270 271 272 274 275 273 264 265 264 258 270 274 274 273 284 278 282
165 147 150 185 203 244 156 226 245 243 268 214 178 167 166 171 175 185 191 209 225 243 259 270 275 274 272 270 271 271 270 268 267 268 269 272 274 276 272 260 258 258 261 266 276 278 281 277 276
198 137 163 107 53 64 221 288 295 119 121 154 172 175 178 179 179 188 201 215 234 253 266 275 277 279 280 280 279 278 276 272 269 267 269 269 268 267 269 259 264 265 267 268 271 276 282 279 280
154 137 68 359 131 251 264 275 240 239 188 164 170 177 179 179 185 196 205 221 238 256 268 275 282 283 280 281 282 283 276 272 272 272 272 272 271 266 255 265 268 274 275 274 270 270 271 273 275
111 124 90 112 165 189 303 263 218 214 186 179 175 181 179 185 195 199 209 225 244 258 267 276 281 281 280 278 279 282 280 274 270 270 271 271 269 264 260 259 268 275 278 275 271 267 262 263 271
171 203 177 163 225 223 154 277 326 247 183 169 172 181 190 203 198 200 213 233 248 260 268 275 282 283 278 274 275 280 282 279 272 266 264 265 265 266 266 270 275 277 277 277 274 271 274 277 278
Height
1534 1534 1535 1536 1546 1549 1551 1539 1523 1521 1520 1517 1518 1516 1522 1525 1524 1537 1528 1532 1535 1537 1540 1544 1547 1549 1551 1553 1554 1555 1556 1557 1558 1558 1558 1559 1559 1559 1560 1561 1562 1562 1562 1561 1561 1560 1561 1561 1562
1532 1533 1535 1535 1550 1557 1549 1530 1525 1519 1514 1516 1518 1519 1520 1527 1526 1524 1529 1533 1536 1538 1540 1544 1548 1550 1552 1554 1555 1556 1557 1557 1558 1559 1559 1559 1560 1561 1561 1562 1563 1563 1563 1563 1562 1561 1561 1562 1562
1532 1534 1535 1538 1548 1551 1543 1525 1521 1516 1514 1513 1517 1520 1522 1526 1526 1526 1529 1533 1537 1539 1542 1544 1548 1551 1553 1555 1556 1557 1558 1559 1559 1559 1560 1560 1561 1562 1563 1563 1564 1564 1565 1564 1564 1564 1564 1564 1564
1532 1535 1537 1542 1544 1534 1529 1525 1521 1518 1516 1513 1515 1522 1525 1526 1527 1527 1530 1534 1537 1540 1542 1545 1547 1550 1553 1555 1557 1558 1558 1559 1559 1560 1560 1560 1561 1562 1562 1563 1564 1565 1565 1565 1565 1565 1565 1566 1566
1530 1535 1543 1543 1538 1531 1525 1523 1521 1518 1515 1515 1515 1523 1526 1527 1528 1528 1530 1534 1537 1540 1543 1545 1547 1550 1552 1555 1557 1558 1559 1559 1559 1560 1560 1561 1561 1562 1563 1564 1565 1565 1566 1566 1566 1566 1567 1567 1568
1531 1538 1547 1546 1536 1529 1523 1523 1521 1517 1515 1516 1517 1522 1528 1528 1527 1529 1531 1536 1540 1541 1543 1545 1547 1549 1552 1554 1555 1557 1558 1559 1560 1560 1560 1561 1561 1562 1563 1564 1565 1566 1566 1567 1567 1567 1567 1568 1568
1527 1539 1543 1543 1538 1531 1524 1524 1522 1517 1516 1517 1517 1524 1529 1529 1530 1531 1534 1538 1541 1542 1544 1546 1548 1549 1551 1553 1554 1557 1557 1558 1560 1560 1561 1562 1563 1563 1563 1564 1565 1566 1567 1568 1568 1568 1568 1568 1568
1523 1529 1537 1540 1537 1535 1525 1522 1522 1517 1518 1518 1519 1523 1529 1530 1531 1533 1536 1539 1541 1543 1545 1546 1547 1549 1550 1552 1554 1556 1557 1558 1559 1561 1562 1562 1563 1564 1565 1566 1567 1567 1568 1568 1568 1568 1569 1569 1569
1521 1533 1537 1538 1539 1533 1528 1529 1521 1521 1516 1518 1519 1520 1524 1528 1532 1534 1536 1539 1541 1543 1545 1545 1547 1549 1550 1552 1553 1555 1557 1558 1559 1560 1561 1563 1564 1564 1565 1566 1567 1568 1569 1569 1569 1570 1569 1569 1569
1518 1522 1524 1525 1528 1533 1531 1532 1534 1529 1520 1519 1520 1522 1526 1528 1531 1533 1535 1538 1540 1542 1544 1545 1547 1548 1550 1552 1553 1554 1556 1556 1558 1560 1561 1562 1563 1564 1565 1566 1567 1568 1568 1569 1570 1570 1570 1569 1569
1514 1510 1518 1524 1530 1536 1538 1531 1533 1530 1525 1517 1519 1523 1526 1529 1533 1534 1536 1538 1540 1542 1544 1545 1546 1548 1549 1551 1553 1554 1555 1556 1557 1559 1561 1561 1563 1563 1564 1565 1566 1567 1568 1569 1568 1568 1569 1568 1568
1513 1514 1518 1524 1532 1535 1539 1538 1530 1527 1524 1519 1520 1521 1525 1529 1531 1534 1535 1537 1539 1540 1542 1544 1545 1546 1548 1550 1551 1553 1554 1555 1556 1558 1560 1560 1562 1562 1564 1565 1566 1567 1567 1567 1567 1567 1567 1567 1567
1509 1509 1518 1525 1532 1534 1533 1533 1535 1526 1522 1518 1518 1521 1523 1527 1530 1533 1536 1538 1540 1540 1540 1542 1544 1545 1547 1548 1550 1551 1552 1554 1555 1557 1558 1559 1560 1561 1563 1564 1564 1565 1565 1566 1566 1565 1565 1564 1564
1507 1511 1515 1524 1528 1531 1539 1531 1538 1524 1523 1518 1518 1521 1524 1526 1529 1532 1533 1535 1537 1539 1541 1541 1542 1544 1544 1546 1548 1550 1552 1553 1554 1556 1557 1558 1558 1559 1560 1561 1561 1562 1563 1563 1563 1563 1563 1562 1562
1506 1512 1516 1519 1523 1526 1532 1540 1537 1525 1525 1522 1520 1522 1524 1526 1528 1530 1531 1533 1535 1538 1539 1541 1542 1543 1544 1545 1547 1548 1550 1552 1553 1553 1555 1556 1557 1557 1557 1558 1558 1559 1560 1561 1561 1561 1560 1559 1559
1507 1509 1518 1512 1515 1520 1524 1526 1524 1520 1523 1522 1521 1522 1523 1525 1527 1528 1530 1531 1533 1535 1537 1539 1540 1542 1544 1545 1546 1547 1548 1549 1549 1550 1552 1553 1554 1554 1555 1555 1554 1555 1557 1557 1557 1557 1556 1555 1555
1509 1514 1512 1512 1511 1513 1513 1517 1521 1520 1518 1519 1519 1520 1521 1522 1524 1526 1527 1529 1530 1532 1534 1536 1538 1540 1542 1543 1544 1545 1546 1546 1547 1549 1549 1549 1550 1551 1551 1552 1552 1553 1553 1553 1553 1553 1552 1552 1551
1501 1509 1506 1509 1509 1509 1512 1515 1514 1514 1514 1514 1515 1517 1517 1519 1522 1523 1524 1526 1528 1529 1530 1532 1535 1537 1538 1540 1541 1542 1542 1543 1545 1545 1546 1547 1547 1547 1548 1548 1549 1549 1549 1549 1548 1548 1549 1549 1549
1499 1504 1510 1507 1505 1509 1510 1515 1514 1511 1511 1509 1510 1512 1513 1516 1518 1520 1521 1523 1525 1526 1528 1529 1531 1532 1534 1535 1536 1537 1537 1539 1540 1541 1542 1543 1544 1544 1544 1544 1544 1544 1544 1543 1544 1543 1543 1543 1544
1500 1506 1509 1507 1505 1508 1511 1511 1510 1508 1508 1507 1507 1508 1511 1513 1515 1517 1518 1521 1522 1525 1526 1526 1527 1528 1529 1530 1531 1531 1532 1534 1535 1535 1537 1538 1538 1538 1538 1538 1537 1538 1538 1538 1538 1538 1537 1538 1539
1504 1506 1509 1509 1507 1510 1512 1514 1509 1504 1505 1504 1505 1506 1507 1509 1511 1513 1515 1518 1519 1521 1522 1523 1524 1525 1524 1525 1526 1527 1527 1528 1528 1529 1530 1531 1531 1532 1532 1532 1531 1531 1532 1531 1532 1532 1531 1530 1532
1506 1501 1503 1508 1512 1522 1511 1524 1508 1500 1500 1499 1499 1500 1502 1505 1507 1510 1512 1515 1516 1518 1519 1519 1520 1520 1520 1520 1521 1521 1521 1522 1523 1523 1523 1524 1524 1524 1524 1525 1525 1525 1524 1524 1525 1525 1525 1525 1524
1502 1498 1504 1508 1514 1516 1516 1526 1506 1500 1501 1494 1492 1495 1498 1501 1504 1507 1509 1512 1513 1515 1515 1515 1516 1516 1517 1516 1516 1515 1515 1515 1515 1515 1515 1516 1516 1515 1516 1517 1518 1519 1519 1519 1518 1518 1517 1517 1518
1496 1502 1508 1516 1521 1534 1516 1522 1510 1499 1492 1489 1489 1492 1496 1499 1503 1506 1508 1510 1511 1512 1512 1512 1513 1514 1514 1513 1512 1511 1511 1510 1510 1510 1510 1509 1509 1509 1509 1511 1512 1513 1514 1513 1513 1513 1512 1511 1511
1496 1506 1538 1532 1542 1526 1515 1523 1493 1485 1485 1485 1486 1490 1493 1497 1501 1503 1506 1508 1508 1508 1509 1509 1510 1510 1510 1510 1509 1507 1506 1506 1505 1505 1505 1505 1504 1504 1505 1505 1506 1507 1508 1508 1508 1508 1507 1507 1505
1499 1501 1524 1524 1536 1524 1517 1513 1494 1480 1478 1478 1481 1485 1490 1494 1498 1501 1504 1505 1505 1506 1506 1506 1506 1506 1506 1505 1505 1503 1502 1501 1500 1500 1500 1500 1499 1499 1500 1500 1502 1503 1504 1504 1503 1502 1501 1500 1500
1498 1505 1503 1519 1528 1540 1514 1499 1483 1478 1477 1477 1482 1484 1487 1492 1496 1499 1501 1502 1503 1504 1503 1503 1503 1502 1502 1501 1500 1499 1498 1497 1496 1496 1495 1495 1495 1496 1496 1496 1497 1498 1498 1498 1497 1496 1495 1495 1495
1496 1498 1511 1525 1530 1522 1508 1505 1488 1480 1478 1477 1480 1483 1486 1491 1495 1497 1498 1500 1501 1501 1501 1500 1499 1499 1498 1497 1497 1496 1494 1493 1492 1492 1492 1492 1491 1491 1492 1493 1493 1494 1493 1492 1492 1491 1490 1490 1489
1501 1505 1503 1507 1513 1519 1513 1498 1477 1474 1472 1473 1477 1482 1486 1490 1492 1494 1496 1497 1497 1497 1497 1497 1496 1495 1494 1494 1493 1492 1491 1489 1489 1489 1488 1488 1488 1488 1489 1489 1490 1489 1489 1488 1488 1487 1487 1487 1486
1494 1497 1494 1500 1513 1520 1521 1498 1473 1471 1470 1473 1477 1481 1486 1488 1490 1492 1494 1494 1494 1494 1493 1493 1492 1491 1490 1489 1489 1488 1487 1487 1486 1485 1485 1484 1484 1484 1485 1485 1485 1485 1485 1485 1484 1484 1484 1483 1482